User: anonymous
Location: Albany
(35.0000°S, 118.0000°E)
Time: 01:56:32
(UTC-04:00)
Language:

Cosmos 1758 Rocket - Orbit

View from above orbital plane
View from above orbital plane
View from above satellite
View from above satellite

Ground track
Ground track

The orbit data is extracted from the following two-line orbital elements,

1 16792U 86046B   14271.79251226  .00000408  00000-0  47571-4 0  5893
2 16792 082.4830 055.9550 0023218 321.9988 095.0414 14.82629547527800
Epoch (UTC): 28 September 2014 19:01:13
Eccentricity: 0.0023218
inclination: 82.4830°
perigee height: 605 km
apogee height: 637 km
right ascension of ascending node: 55.9550°
argument of perigee: 321.9988°
revolutions per day: 14.82629547
mean anomaly at epoch: 95.0414°
orbit number at epoch: 52780

The dashed part of the orbit path shows where the satellite is in the earth's shadow,  

DLR